Location: Czu?�w
(50.1404°N, 18.9919°E)
Time: 03:10:46
(UTC+00:00)

MOS 1 Rocket - Pass Details

Date: 27 October 2020
Orbit: 615 x 829 km, 97.4° (Epoch: 27 November)

Event Time Altitude Azimuth Distance (km) Brightness Sun altitude
Rises 18:00:47 0° 11° (N) 3,009 6.6 -24.9°
Reaches altitude 10° 18:02:58 10° 9° (N) 2,119 5.8 -25.2°
Maximum altitude 18:07:35 71° 286° (WNW) 748 3.5 -25.9°
Drops below altitude 10° 18:12:28 10° 203° (SSW) 2,238 6.0 -26.7°
Sets 18:14:49 0° 202° (SSW) 3,191 6.8 -27.1°
